TimeCST,TemperatureF,Dew PointF,Humidity,Sea Level PressureIn,VisibilityMPH,Wind Direction,Wind SpeedMPH,Gust SpeedMPH,PrecipitationIn,Events,Conditions,WindDirDegrees,DateUTC
12:15 AM,37.4,32.0,81,29.93,5.0,North,9.2,-,N/A,,Overcast,360,2012-12-08 06:15:00
12:35 AM,35.6,32.0,87,29.92,7.0,North,9.2,-,0.01,,Overcast,360,2012-12-08 06:35:00
12:55 AM,35.6,32.0,87,29.94,7.0,North,8.1,-,0.01,,Overcast,350,2012-12-08 06:55:00
1:15 AM,35.6,32.0,87,29.94,5.0,NNW,6.9,-,N/A,,Overcast,340,2012-12-08 07:15:00
1:35 AM,35.6,32.0,87,29.94,5.0,North,5.8,-,N/A,,Overcast,360,2012-12-08 07:35:00
1:55 AM,35.6,32.0,87,29.94,5.0,North,8.1,-,0.01,,Overcast,360,2012-12-08 07:55:00
2:15 AM,35.6,32.0,87,29.93,5.0,NNE,5.8,-,N/A,,Overcast,30,2012-12-08 08:15:00
2:35 AM,35.6,32.0,87,29.93,5.0,NNE,8.1,-,N/A,,Overcast,30,2012-12-08 08:35:00
2:55 AM,35.6,32.0,87,29.94,7.0,NNE,6.9,-,N/A,,Overcast,20,2012-12-08 08:55:00
3:15 AM,35.6,32.0,87,29.94,7.0,North,8.1,-,N/A,,Overcast,10,2012-12-08 09:15:00
3:35 AM,35.6,32.0,87,29.94,7.0,NNE,8.1,-,N/A,,Overcast,20,2012-12-08 09:35:00
3:55 AM,35.6,32.0,87,29.94,5.0,NNE,5.8,-,N/A,,Overcast,30,2012-12-08 09:55:00
4:15 AM,35.6,32.0,87,29.95,7.0,North,4.6,-,N/A,,Overcast,10,2012-12-08 10:15:00
4:35 AM,35.6,32.0,87,29.96,7.0,North,4.6,-,N/A,,Overcast,10,2012-12-08 10:35:00
5:15 AM,35.6,32.0,87,29.97,7.0,North,4.6,-,N/A,,Overcast,360,2012-12-08 11:15:00
5:35 AM,35.6,32.0,87,29.98,5.0,North,5.8,-,N/A,,Overcast,360,2012-12-08 11:35:00
5:55 AM,35.6,32.0,87,29.99,7.0,North,5.8,-,N/A,,Overcast,350,2012-12-08 11:55:00
6:15 AM,35.6,32.0,87,29.99,7.0,NNW,4.6,-,N/A,,Overcast,340,2012-12-08 12:15:00
6:35 AM,35.6,30.2,81,30.00,7.0,NNW,5.8,-,N/A,,Overcast,340,2012-12-08 12:35:00
6:55 AM,35.6,30.2,81,30.00,7.0,North,4.6,-,N/A,,Overcast,350,2012-12-08 12:55:00
7:15 AM,35.6,30.2,81,30.00,7.0,North,6.9,-,N/A,,Overcast,10,2012-12-08 13:15:00
7:35 AM,35.6,30.2,81,30.01,7.0,North,5.8,-,N/A,,Overcast,10,2012-12-08 13:35:00
7:55 AM,35.6,30.2,81,30.01,7.0,NNE,8.1,-,N/A,,Overcast,20,2012-12-08 13:55:00
8:15 AM,33.8,28.4,81,30.02,5.0,North,4.6,-,N/A,,Haze,360,2012-12-08 14:15:00
8:35 AM,35.6,30.2,81,30.02,7.0,Calm,Calm,-,N/A,,Scattered Clouds,0,2012-12-08 14:35:00
8:55 AM,35.6,30.2,81,30.02,10.0,NNW,3.5,-,N/A,,Mostly Cloudy,340,2012-12-08 14:55:00
9:15 AM,35.6,30.2,81,30.03,10.0,North,4.6,-,N/A,,Scattered Clouds,360,2012-12-08 15:15:00
9:35 AM,37.4,30.2,75,30.03,10.0,NNE,4.6,-,N/A,,Clear,20,2012-12-08 15:35:00
9:55 AM,37.4,30.2,75,30.03,10.0,North,4.6,-,N/A,,Scattered Clouds,10,2012-12-08 15:55:00
10:15 AM,39.2,32.0,75,30.04,10.0,NNE,4.6,-,N/A,,Clear,30,2012-12-08 16:15:00
10:35 AM,39.2,32.0,75,30.04,10.0,NE,3.5,-,N/A,,Scattered Clouds,40,2012-12-08 16:35:00
10:55 AM,39.2,30.2,70,30.04,10.0,NNE,3.5,-,N/A,,Scattered Clouds,20,2012-12-08 16:55:00
11:15 AM,39.2,30.2,70,30.04,10.0,Calm,Calm,-,N/A,,Scattered Clouds,0,2012-12-08 17:15:00
11:35 AM,39.2,32.0,75,30.03,10.0,Calm,Calm,-,N/A,,Clear,0,2012-12-08 17:35:00
11:55 AM,41.0,32.0,70,30.02,10.0,Calm,Calm,-,N/A,,Clear,0,2012-12-08 17:55:00
12:15 PM,42.8,32.0,66,30.01,10.0,NNE,6.9,-,N/A,,Scattered Clouds,30,2012-12-08 18:15:00
12:35 PM,42.8,30.2,61,30.01,10.0,NE,8.1,-,N/A,,Clear,50,2012-12-08 18:35:00
12:55 PM,42.8,30.2,61,30.01,10.0,NE,6.9,-,N/A,,Clear,40,2012-12-08 18:55:00
1:15 PM,44.6,32.0,61,30.01,10.0,ENE,3.5,-,N/A,,Clear,60,2012-12-08 19:15:00
1:35 PM,44.6,30.2,57,30.01,10.0,ENE,4.6,-,N/A,,Clear,70,2012-12-08 19:35:00
1:55 PM,42.8,32.0,66,30.00,10.0,East,4.6,-,N/A,,Clear,90,2012-12-08 19:55:00
2:15 PM,42.8,30.2,61,30.00,10.0,NE,8.1,-,N/A,,Scattered Clouds,50,2012-12-08 20:15:00
2:35 PM,42.8,30.2,61,30.00,10.0,ENE,8.1,-,N/A,,Scattered Clouds,60,2012-12-08 20:35:00
2:55 PM,42.8,30.2,61,30.00,10.0,ENE,6.9,-,N/A,,Scattered Clouds,60,2012-12-08 20:55:00
3:15 PM,42.8,32.0,66,30.01,10.0,East,6.9,-,N/A,,Scattered Clouds,80,2012-12-08 21:15:00
3:35 PM,42.8,30.2,61,30.01,10.0,ENE,6.9,-,N/A,,Scattered Clouds,70,2012-12-08 21:35:00
3:55 PM,41.0,30.2,65,30.02,10.0,East,9.2,-,N/A,,Mostly Cloudy,80,2012-12-08 21:55:00
4:15 PM,41.0,30.2,65,30.03,10.0,ENE,6.9,-,N/A,,Mostly Cloudy,70,2012-12-08 22:15:00
4:35 PM,41.0,30.2,65,30.03,10.0,East,8.1,-,N/A,,Overcast,80,2012-12-08 22:35:00
4:55 PM,41.0,30.2,65,30.02,10.0,East,8.1,-,N/A,,Overcast,80,2012-12-08 22:55:00
5:15 PM,39.2,30.2,70,30.03,10.0,East,8.1,-,N/A,,Overcast,90,2012-12-08 23:15:00
5:35 PM,39.2,30.2,70,30.03,10.0,East,11.5,-,N/A,,Mostly Cloudy,90,2012-12-08 23:35:00
5:55 PM,39.2,30.2,70,30.04,10.0,East,9.2,-,N/A,,Mostly Cloudy,90,2012-12-08 23:55:00
6:15 PM,39.2,30.2,70,30.04,10.0,East,9.2,-,N/A,,Overcast,100,2012-12-09 00:15:00
6:35 PM,37.4,30.2,75,30.03,10.0,East,8.1,-,N/A,,Overcast,90,2012-12-09 00:35:00
6:55 PM,37.4,30.2,75,30.03,10.0,East,9.2,-,N/A,,Overcast,90,2012-12-09 00:55:00
7:15 PM,37.4,32.0,81,30.03,10.0,East,8.1,-,N/A,,Overcast,90,2012-12-09 01:15:00
7:35 PM,37.4,32.0,81,30.03,10.0,East,6.9,-,N/A,,Overcast,90,2012-12-09 01:35:00
8:15 PM,37.4,32.0,81,30.02,10.0,East,8.1,-,N/A,,Mostly Cloudy,90,2012-12-09 02:15:00
8:35 PM,37.4,30.2,75,30.02,10.0,East,8.1,-,N/A,,Mostly Cloudy,90,2012-12-09 02:35:00
8:55 PM,37.4,32.0,81,30.02,10.0,East,9.2,-,N/A,,Mostly Cloudy,90,2012-12-09 02:55:00
9:15 PM,37.4,32.0,81,30.01,10.0,East,10.4,-,N/A,,Overcast,90,2012-12-09 03:15:00
9:35 PM,37.4,32.0,81,30.01,10.0,East,6.9,-,N/A,,Scattered Clouds,90,2012-12-09 03:35:00
9:55 PM,37.4,32.0,81,30.01,10.0,East,5.8,-,N/A,,Scattered Clouds,100,2012-12-09 03:55:00
10:15 PM,39.2,32.0,75,30.01,10.0,East,5.8,-,N/A,,Clear,100,2012-12-09 04:15:00
10:35 PM,39.2,33.8,81,30.02,10.0,ESE,6.9,-,N/A,,Clear,110,2012-12-09 04:35:00
10:55 PM,39.2,33.8,81,30.01,10.0,East,5.8,-,N/A,,Scattered Clouds,100,2012-12-09 04:55:00
11:15 PM,39.2,33.8,81,30.01,10.0,East,5.8,-,N/A,,Mostly Cloudy,100,2012-12-09 05:15:00
11:35 PM,39.2,33.8,81,30.00,10.0,ESE,5.8,-,N/A,,Overcast,110,2012-12-09 05:35:00
11:55 PM,39.2,33.8,81,30.00,10.0,ESE,10.4,-,N/A,,Overcast,120,2012-12-09 05:55:00